< < Back
Terminal Aerodrome Forecast


Current Version              Previous Versions:   1  2  3  4  5  6  7  8  9  

Terminal Aerodrome Forecast

712
FTUS44 KOHX 271700
TAFCSV
TAF
KCSV 271720Z 2718/2818 02011KT P6SM FEW050 BKN250
     FM280100 03004KT P6SM SKC
     FM281500 06008KT P6SM BKN250=



Latest METAR

616
SAUS70 KWBC 281900 RRB
MTRCSV
METAR KCSV 281853Z AUTO 20003KT 10SM CLR 18/01 A2992 RMK AO2 SLP125
T01780011


USA.gov is the U.S. government's official web portal to all federal, state and local government web resources and services.